Weather in Terbuny

Russia / Lipetsk Oblast     52°08′50″N   38°16′47″E
temp.,
°C
wind,
m/s
gust,
m/s
humid.,
%
clouds,
%
prec.,
mm/h
press.,
hPa
HPBL,
m
17 may, mon
mon1700:00+16ne4117739 0.1 1011209
03:00+15e489468 0.1 1010139
06:00+16e410835 0.0 1010188
09:00+22se6136045 0.0 1009470
12:00+25ese7124588 0.0 10091279
15:00+25ese81449100 0.0 10081436
18:00+24ese714571 0.0 1007668
21:00+19ese615703 0.0 1007302
18 may, tue
tue1800:00+17ese4127581 0.0 1008253
03:00+15ese487688 0.0 1007139
06:00+14ese37789 0.0 1007144
09:00+20se712608 0.0 1007481
12:00+22se5954100 0.0 1006859
15:00+24se694783 0.0 10051541
18:00+21s697099 0.3 1006576
21:00+16s41187100 1.5 1006476
19 may, wed
wed1900:00+15ese489259 0.1 1008280
03:00+15se4895100 0.5 1007273
06:00+15se4109287 1.1 1007390
09:00+18sse457693 1.1 1007747
12:00+21sse565941 0.1 10071683
15:00+22sse575266 0.1 10061921
18:00+20s4672100 0.3 1006454
21:00+15ssw4991100 0.6 1007274
20 may, thu
thu2000:00+13sse2394100 0.0 100774
03:00+13s369645 1.2 1006313
06:00+12sse3695100 0.0 1007262
09:00+15sse4483100 0.1 1006585
12:00+16s237212 0.9 1007546
15:00+18s676896 3.9 10061118
18:00+16ssw698147 2.7 1007872
21:00+12sw411911 3.0 1008400
21 may, fri
fri2100:00+10ssw499410 0.0 1010213
03:00+12s41193100 0.1 1009467
06:00+12ssw61192100 0.1 1009709
09:00+11sw4108960 1.8 1011499
12:00+16sw8117287 0.0 10111275
15:00+17wsw7117192 0.3 10121493
18:00+15w7117146 0.1 10141225
21:00+10w31083100 0.1 1017392